Time,TemperatureF,DewpointF,PressureIn,WindDirection,WindDirectionDegrees,WindSpeedMPH,WindSpeedGustMPH,Humidity,HourlyPrecipIn,Conditions,Clouds,dailyrainin,SoftwareType,DateUTC
2013-03-25 00:02:00,46.7,45.0,30.24,WSW,247,4.7,12.1,94,0.00,,,0.00,Rainwise IP-100,2013-03-25 07:02:00,
2013-03-25 00:07:00,46.7,45.0,30.23,WSW,247,1.4,9.6,94,0.00,,,0.00,Rainwise IP-100,2013-03-25 07:07:00,
2013-03-25 00:12:00,46.7,45.0,30.23,SE,135,4.9,10.0,94,0.00,,,0.00,Rainwise IP-100,2013-03-25 07:12:00,
2013-03-25 00:17:00,46.6,45.0,30.23,WSW,247,0.0,10.0,94,0.00,,,0.00,Rainwise IP-100,2013-03-25 07:17:00,
2013-03-25 00:22:00,46.6,45.0,30.23,SW,225,7.2,10.7,94,0.00,,,0.00,Rainwise IP-100,2013-03-25 07:22:00,
2013-03-25 00:27:00,46.5,45.0,30.23,SW,225,8.6,11.4,95,0.00,,,0.00,Rainwise IP-100,2013-03-25 07:27:00,
2013-03-25 00:32:00,46.5,45.0,30.23,SSW,202,3.0,14.0,95,0.00,,,0.00,Rainwise IP-100,2013-03-25 07:32:00,
2013-03-25 00:37:00,46.4,44.0,30.24,WSW,247,3.7,8.9,95,0.00,,,0.00,Rainwise IP-100,2013-03-25 07:37:00,
2013-03-25 00:42:00,46.4,44.0,30.24,NNW,337,1.4,8.2,95,0.00,,,0.00,Rainwise IP-100,2013-03-25 07:42:00,
2013-03-25 00:47:00,46.4,44.0,30.23,SW,225,5.1,7.9,95,0.00,,,0.00,Rainwise IP-100,2013-03-25 07:47:00,
2013-03-25 00:52:00,46.4,44.0,30.23,SSW,202,3.3,9.8,95,0.00,,,0.00,Rainwise IP-100,2013-03-25 07:52:00,
2013-03-25 00:57:00,46.4,44.0,30.23,SW,225,1.6,11.2,95,0.00,,,0.00,Rainwise IP-100,2013-03-25 07:57:00,
2013-03-25 01:02:00,46.4,44.0,30.23,SW,225,2.6,10.0,95,0.00,,,0.00,Rainwise IP-100,2013-03-25 08:02:00,
2013-03-25 01:07:00,46.4,44.0,30.23,West,270,2.8,13.8,94,0.00,,,0.00,Rainwise IP-100,2013-03-25 08:07:00,
2013-03-25 01:12:00,46.4,44.0,30.22,ESE,112,3.3,11.4,94,0.00,,,0.00,Rainwise IP-100,2013-03-25 08:12:00,
2013-03-25 01:17:00,46.4,44.0,30.23,West,270,3.0,11.9,93,0.00,,,0.00,Rainwise IP-100,2013-03-25 08:17:00,
2013-03-25 01:22:00,46.4,44.0,30.23,SSW,202,4.4,7.7,93,0.00,,,0.00,Rainwise IP-100,2013-03-25 08:22:00,
2013-03-25 01:27:00,46.3,44.0,30.23,WSW,247,3.3,8.4,93,0.00,,,0.00,Rainwise IP-100,2013-03-25 08:27:00,
2013-03-25 01:32:00,46.3,44.0,30.23,WSW,247,2.6,11.7,93,0.00,,,0.00,Rainwise IP-100,2013-03-25 08:32:00,
2013-03-25 01:37:00,46.3,44.0,30.23,WSW,247,3.5,10.3,93,0.00,,,0.00,Rainwise IP-100,2013-03-25 08:37:00,
2013-03-25 01:42:00,46.3,44.0,30.23,WNW,292,1.4,8.6,93,0.00,,,0.00,Rainwise IP-100,2013-03-25 08:42:00,
2013-03-25 01:47:00,46.2,44.0,30.22,SW,225,5.4,8.9,93,0.00,,,0.00,Rainwise IP-100,2013-03-25 08:47:00,
2013-03-25 01:52:00,46.2,44.0,30.23,East,90,2.3,15.2,93,0.00,,,0.00,Rainwise IP-100,2013-03-25 08:52:00,
2013-03-25 01:57:00,46.1,44.0,30.23,NW,315,3.5,8.9,93,0.00,,,0.00,Rainwise IP-100,2013-03-25 08:57:00,
2013-03-25 02:02:00,46.0,44.0,30.22,WNW,292,4.4,9.1,93,0.00,,,0.00,Rainwise IP-100,2013-03-25 09:02:00,
2013-03-25 02:07:00,46.0,44.0,30.22,SW,225,1.2,7.5,93,0.00,,,0.00,Rainwise IP-100,2013-03-25 09:07:00,
2013-03-25 02:12:00,45.9,44.0,30.22,SW,225,2.1,7.2,93,0.00,,,0.00,Rainwise IP-100,2013-03-25 09:12:00,
2013-03-25 02:17:00,45.9,44.0,30.22,SSW,202,1.9,5.8,93,0.00,,,0.00,Rainwise IP-100,2013-03-25 09:17:00,
2013-03-25 02:22:00,45.8,44.0,30.22,WSW,247,4.4,6.3,93,0.00,,,0.00,Rainwise IP-100,2013-03-25 09:22:00,
2013-03-25 02:27:00,45.8,44.0,30.22,SE,135,1.4,6.1,93,0.00,,,0.00,Rainwise IP-100,2013-03-25 09:27:00,
2013-03-25 02:32:00,45.8,44.0,30.22,South,180,3.3,11.9,94,0.00,,,0.00,Rainwise IP-100,2013-03-25 09:32:00,
2013-03-25 02:37:00,45.8,44.0,30.22,NW,315,0.0,7.0,93,0.00,,,0.00,Rainwise IP-100,2013-03-25 09:37:00,
2013-03-25 02:42:00,45.8,44.0,30.22,West,270,0.0,11.4,93,0.00,,,0.00,Rainwise IP-100,2013-03-25 09:42:00,
2013-03-25 02:47:00,45.8,44.0,30.22,SSE,157,1.4,6.3,93,0.00,,,0.00,Rainwise IP-100,2013-03-25 09:47:00,
2013-03-25 02:52:00,45.8,44.0,30.22,SW,225,6.5,6.5,93,0.00,,,0.00,Rainwise IP-100,2013-03-25 09:52:00,
2013-03-25 02:57:00,45.8,44.0,30.22,WSW,247,4.2,10.7,93,0.00,,,0.00,Rainwise IP-100,2013-03-25 09:57:00,
2013-03-25 03:02:00,45.9,44.0,30.22,WSW,247,2.1,11.7,93,0.00,,,0.00,Rainwise IP-100,2013-03-25 10:02:00,
2013-03-25 03:07:00,45.9,44.0,30.22,SW,225,1.4,8.6,93,0.00,,,0.00,Rainwise IP-100,2013-03-25 10:07:00,
2013-03-25 03:12:00,45.9,44.0,30.22,SSW,202,1.6,11.0,93,0.00,,,0.00,Rainwise IP-100,2013-03-25 10:12:00,
2013-03-25 03:17:00,45.9,44.0,30.22,SE,135,4.0,9.6,93,0.00,,,0.00,Rainwise IP-100,2013-03-25 10:17:00,
2013-03-25 03:22:00,45.9,44.0,30.22,SW,225,6.5,9.8,93,0.00,,,0.00,Rainwise IP-100,2013-03-25 10:22:00,
2013-03-25 03:27:00,45.9,44.0,30.22,West,270,3.5,12.8,93,0.00,,,0.00,Rainwise IP-100,2013-03-25 10:27:00,
2013-03-25 03:32:00,46.0,44.0,30.22,WSW,247,2.6,8.2,93,0.00,,,0.00,Rainwise IP-100,2013-03-25 10:32:00,
2013-03-25 03:37:00,46.0,44.0,30.22,West,270,6.8,13.8,92,0.00,,,0.00,Rainwise IP-100,2013-03-25 10:37:00,
2013-03-25 03:42:00,46.0,44.0,30.21,SE,135,4.4,7.9,92,0.00,,,0.00,Rainwise IP-100,2013-03-25 10:42:00,
2013-03-25 03:47:00,45.9,44.0,30.21,SW,225,6.1,10.7,92,0.00,,,0.00,Rainwise IP-100,2013-03-25 10:47:00,
2013-03-25 03:52:00,45.8,44.0,30.21,SSW,202,2.8,7.2,92,0.00,,,0.00,Rainwise IP-100,2013-03-25 10:52:00,
2013-03-25 03:57:00,45.7,44.0,30.21,WNW,292,3.0,9.1,92,0.00,,,0.00,Rainwise IP-100,2013-03-25 10:57:00,
2013-03-25 04:02:00,45.7,44.0,30.21,South,180,4.7,7.7,92,0.00,,,0.00,Rainwise IP-100,2013-03-25 11:02:00,
2013-03-25 04:07:00,45.7,44.0,30.20,West,270,2.1,14.9,93,0.00,,,0.00,Rainwise IP-100,2013-03-25 11:07:00,
2013-03-25 04:12:00,45.7,44.0,30.20,WNW,292,4.9,9.3,93,0.00,,,0.00,Rainwise IP-100,2013-03-25 11:12:00,
2013-03-25 04:17:00,45.7,44.0,30.20,West,270,6.3,10.3,93,0.00,,,0.00,Rainwise IP-100,2013-03-25 11:17:00,
2013-03-25 04:22:00,45.7,44.0,30.20,West,270,2.6,9.8,93,0.00,,,0.00,Rainwise IP-100,2013-03-25 11:22:00,
2013-03-25 04:27:00,45.8,44.0,30.21,WNW,292,2.8,10.5,93,0.00,,,0.00,Rainwise IP-100,2013-03-25 11:27:00,
2013-03-25 04:32:00,45.8,44.0,30.21,WNW,292,2.6,7.5,93,0.00,,,0.00,Rainwise IP-100,2013-03-25 11:32:00,
2013-03-25 04:37:00,45.8,44.0,30.21,WSW,247,3.5,10.3,93,0.00,,,0.00,Rainwise IP-100,2013-03-25 11:37:00,
2013-03-25 04:42:00,45.9,44.0,30.21,SW,225,8.2,11.2,93,0.00,,,0.00,Rainwise IP-100,2013-03-25 11:42:00,
2013-03-25 04:47:00,46.0,44.0,30.21,WNW,292,5.1,11.4,93,0.00,,,0.00,Rainwise IP-100,2013-03-25 11:47:00,
2013-03-25 04:52:00,46.0,44.0,30.21,West,270,1.4,7.9,93,0.00,,,0.00,Rainwise IP-100,2013-03-25 11:52:00,
2013-03-25 04:57:00,45.8,44.0,30.20,WSW,247,4.4,11.7,93,0.00,,,0.00,Rainwise IP-100,2013-03-25 11:57:00,
2013-03-25 05:02:00,45.6,44.0,30.21,NNE,22,0.0,11.4,93,0.00,,,0.00,Rainwise IP-100,2013-03-25 12:02:00,
2013-03-25 05:07:00,45.5,44.0,30.20,ENE,67,3.7,8.4,93,0.00,,,0.00,Rainwise IP-100,2013-03-25 12:07:00,
2013-03-25 05:12:00,45.4,43.0,30.21,WSW,247,4.4,9.8,93,0.00,,,0.00,Rainwise IP-100,2013-03-25 12:12:00,
2013-03-25 05:17:00,45.4,43.0,30.21,South,180,3.0,11.7,94,0.00,,,0.00,Rainwise IP-100,2013-03-25 12:17:00,
2013-03-25 05:22:00,45.4,43.0,30.21,South,180,2.8,11.7,94,0.00,,,0.00,Rainwise IP-100,2013-03-25 12:22:00,
2013-03-25 05:27:00,45.5,44.0,30.21,WSW,247,4.0,9.1,94,0.00,,,0.00,Rainwise IP-100,2013-03-25 12:27:00,
2013-03-25 05:32:00,45.6,44.0,30.21,WNW,292,1.2,13.1,94,0.00,,,0.00,Rainwise IP-100,2013-03-25 12:32:00,
2013-03-25 05:37:00,45.7,44.0,30.22,WSW,247,4.0,10.5,94,0.00,,,0.00,Rainwise IP-100,2013-03-25 12:37:00,
2013-03-25 05:42:00,45.8,44.0,30.21,SSW,202,6.3,11.4,94,0.00,,,0.00,Rainwise IP-100,2013-03-25 12:42:00,
2013-03-25 05:47:00,45.8,44.0,30.22,SW,225,2.6,14.5,94,0.00,,,0.00,Rainwise IP-100,2013-03-25 12:47:00,
2013-03-25 05:53:00,45.8,44.0,30.22,WNW,292,1.9,8.4,94,0.00,,,0.00,Rainwise IP-100,2013-03-25 12:53:00,
2013-03-25 05:58:00,45.8,44.0,30.22,WNW,292,3.3,8.2,94,0.00,,,0.00,Rainwise IP-100,2013-03-25 12:58:00,
2013-03-25 06:03:00,45.7,44.0,30.21,SW,225,4.9,11.7,93,0.00,,,0.00,Rainwise IP-100,2013-03-25 13:03:00,
2013-03-25 06:08:00,45.7,44.0,30.21,ENE,67,1.9,6.1,93,0.00,,,0.00,Rainwise IP-100,2013-03-25 13:08:00,
2013-03-25 06:13:00,45.7,44.0,30.21,SSE,157,0.0,4.2,93,0.00,,,0.00,Rainwise IP-100,2013-03-25 13:13:00,
2013-03-25 06:18:00,45.7,44.0,30.22,WNW,292,4.0,9.1,93,0.00,,,0.00,Rainwise IP-100,2013-03-25 13:18:00,
2013-03-25 06:23:00,45.7,44.0,30.22,SW,225,2.6,7.0,93,0.00,,,0.00,Rainwise IP-100,2013-03-25 13:23:00,
2013-03-25 06:28:00,45.7,44.0,30.23,ENE,67,1.9,11.0,93,0.00,,,0.00,Rainwise IP-100,2013-03-25 13:28:00,
2013-03-25 06:33:00,45.7,44.0,30.22,SW,225,3.5,7.2,93,0.00,,,0.00,Rainwise IP-100,2013-03-25 13:33:00,
2013-03-25 06:38:00,45.6,44.0,30.22,WSW,247,1.9,8.4,93,0.00,,,0.00,Rainwise IP-100,2013-03-25 13:38:00,
2013-03-25 06:43:00,45.6,44.0,30.22,WSW,247,2.3,5.8,93,0.00,,,0.00,Rainwise IP-100,2013-03-25 13:43:00,
2013-03-25 06:48:00,45.5,44.0,30.22,NW,315,3.5,6.1,93,0.00,,,0.00,Rainwise IP-100,2013-03-25 13:48:00,
2013-03-25 06:53:00,45.5,44.0,30.22,SSE,157,1.6,6.8,93,0.00,,,0.00,Rainwise IP-100,2013-03-25 13:53:00,
2013-03-25 06:58:00,45.6,44.0,30.22,South,180,3.7,8.2,93,0.00,,,0.00,Rainwise IP-100,2013-03-25 13:58:00,
2013-03-25 07:03:00,45.6,44.0,30.22,WNW,292,3.0,7.5,93,0.00,,,0.00,Rainwise IP-100,2013-03-25 14:03:00,
2013-03-25 07:08:00,45.6,44.0,30.23,West,270,3.7,9.8,93,0.00,,,0.00,Rainwise IP-100,2013-03-25 14:08:00,
2013-03-25 07:13:00,45.6,44.0,30.22,SSW,202,6.1,7.2,93,0.00,,,0.00,Rainwise IP-100,2013-03-25 14:13:00,
2013-03-25 07:18:00,45.6,44.0,30.23,WSW,247,1.9,7.0,93,0.00,,,0.00,Rainwise IP-100,2013-03-25 14:18:00,
2013-03-25 07:23:00,45.7,44.0,30.22,WSW,247,5.6,5.6,93,0.00,,,0.00,Rainwise IP-100,2013-03-25 14:23:00,
2013-03-25 07:28:00,45.7,44.0,30.23,SSW,202,4.7,11.2,93,0.00,,,0.00,Rainwise IP-100,2013-03-25 14:28:00,
2013-03-25 07:33:00,45.7,44.0,30.23,SW,225,1.6,8.4,93,0.00,,,0.00,Rainwise IP-100,2013-03-25 14:33:00,
2013-03-25 07:38:00,45.6,44.0,30.23,West,270,2.8,9.3,93,0.00,,,0.00,Rainwise IP-100,2013-03-25 14:38:00,
2013-03-25 07:43:00,45.6,44.0,30.23,East,90,0.0,7.2,93,0.00,,,0.00,Rainwise IP-100,2013-03-25 14:43:00,
2013-03-25 07:48:00,45.6,44.0,30.24,WNW,292,2.6,9.1,93,0.00,,,0.00,Rainwise IP-100,2013-03-25 14:48:00,
2013-03-25 07:53:00,45.6,44.0,30.23,NW,315,3.0,7.5,93,0.00,,,0.00,Rainwise IP-100,2013-03-25 14:53:00,
2013-03-25 07:58:00,45.6,44.0,30.23,WSW,247,3.3,7.5,93,0.00,,,0.00,Rainwise IP-100,2013-03-25 14:58:00,
2013-03-25 08:03:00,45.8,44.0,30.23,SSW,202,2.3,5.8,92,0.00,,,0.00,Rainwise IP-100,2013-03-25 15:03:00,
2013-03-25 08:08:00,45.8,44.0,30.23,SW,225,8.4,11.4,92,0.00,,,0.00,Rainwise IP-100,2013-03-25 15:08:00,
2013-03-25 08:13:00,45.8,44.0,30.23,WSW,247,4.0,9.1,92,0.00,,,0.00,Rainwise IP-100,2013-03-25 15:13:00,
2013-03-25 08:18:00,46.0,44.0,30.24,WNW,292,4.7,8.4,92,0.00,,,0.00,Rainwise IP-100,2013-03-25 15:18:00,
2013-03-25 08:23:00,46.2,44.0,30.24,WSW,247,3.7,8.9,92,0.00,,,0.00,Rainwise IP-100,2013-03-25 15:23:00,
2013-03-25 08:28:00,46.2,43.0,30.24,SW,225,3.5,7.7,91,0.00,,,0.00,Rainwise IP-100,2013-03-25 15:28:00,
2013-03-25 08:33:00,46.3,43.0,30.24,SW,225,5.1,11.2,91,0.00,,,0.00,Rainwise IP-100,2013-03-25 15:33:00,
2013-03-25 08:38:00,46.2,43.0,30.24,SW,225,2.3,10.7,91,0.00,,,0.00,Rainwise IP-100,2013-03-25 15:38:00,
2013-03-25 08:43:00,46.1,43.0,30.24,North,360,3.5,11.7,91,0.00,,,0.00,Rainwise IP-100,2013-03-25 15:43:00,
2013-03-25 08:48:00,46.2,43.0,30.24,WSW,247,0.0,9.1,91,0.00,,,0.00,Rainwise IP-100,2013-03-25 15:48:00,
2013-03-25 08:53:00,46.3,43.0,30.24,WNW,292,2.3,8.4,91,0.00,,,0.00,Rainwise IP-100,2013-03-25 15:53:00,
2013-03-25 08:58:00,46.3,43.0,30.24,SSW,202,7.0,10.7,90,0.00,,,0.00,Rainwise IP-100,2013-03-25 15:58:00,
2013-03-25 09:03:00,46.3,43.0,30.24,SW,225,9.6,11.9,90,0.00,,,0.00,Rainwise IP-100,2013-03-25 16:03:00,
2013-03-25 09:08:00,46.3,43.0,30.25,West,270,3.7,10.3,90,0.00,,,0.00,Rainwise IP-100,2013-03-25 16:08:00,
2013-03-25 09:13:00,46.5,44.0,30.24,West,270,5.1,9.1,90,0.00,,,0.00,Rainwise IP-100,2013-03-25 16:13:00,
2013-03-25 09:18:00,46.6,44.0,30.25,NNW,337,1.2,7.7,90,0.00,,,0.00,Rainwise IP-100,2013-03-25 16:18:00,
2013-03-25 09:23:00,46.5,44.0,30.25,West,270,0.0,8.9,90,0.00,,,0.00,Rainwise IP-100,2013-03-25 16:23:00,
2013-03-25 09:28:00,46.6,44.0,30.24,South,180,5.6,6.3,90,0.00,,,0.00,Rainwise IP-100,2013-03-25 16:28:00,
2013-03-25 09:33:00,46.6,44.0,30.24,West,270,0.0,10.0,90,0.00,,,0.00,Rainwise IP-100,2013-03-25 16:33:00,
2013-03-25 09:38:00,46.8,43.0,30.25,SW,225,5.6,8.2,89,0.00,,,0.00,Rainwise IP-100,2013-03-25 16:38:00,
2013-03-25 09:43:00,47.2,43.0,30.25,SSW,202,3.3,7.7,89,0.00,,,0.00,Rainwise IP-100,2013-03-25 16:43:00,
2013-03-25 09:48:00,47.3,44.0,30.25,WSW,247,3.7,8.4,89,0.00,,,0.00,Rainwise IP-100,2013-03-25 16:48:00,
2013-03-25 09:53:00,47.3,44.0,30.25,WSW,247,3.7,10.3,88,0.00,,,0.00,Rainwise IP-100,2013-03-25 16:53:00,
2013-03-25 09:58:00,47.3,44.0,30.25,SSW,202,5.1,9.3,88,0.00,,,0.00,Rainwise IP-100,2013-03-25 16:58:00,
2013-03-25 10:03:00,47.4,44.0,30.25,WSW,247,2.3,9.3,88,0.00,,,0.00,Rainwise IP-100,2013-03-25 17:03:00,
2013-03-25 10:08:00,47.3,44.0,30.25,SSW,202,3.5,16.8,88,0.00,,,0.00,Rainwise IP-100,2013-03-25 17:08:00,
2013-03-25 10:13:00,47.2,43.0,30.26,West,270,3.3,10.5,88,0.00,,,0.00,Rainwise IP-100,2013-03-25 17:13:00,
2013-03-25 10:18:00,47.4,44.0,30.26,WSW,247,7.0,9.3,87,0.00,,,0.00,Rainwise IP-100,2013-03-25 17:18:00,
2013-03-25 10:23:00,47.3,44.0,30.26,SSW,202,5.8,12.4,87,0.00,,,0.00,Rainwise IP-100,2013-03-25 17:23:00,
2013-03-25 10:28:00,47.2,43.0,30.26,WNW,292,4.2,11.7,87,0.00,,,0.00,Rainwise IP-100,2013-03-25 17:28:00,
2013-03-25 10:33:00,47.2,43.0,30.27,WNW,292,4.4,11.2,87,0.00,,,0.00,Rainwise IP-100,2013-03-25 17:33:00,
2013-03-25 10:38:00,47.4,44.0,30.26,NNW,337,3.0,11.4,87,0.00,,,0.00,Rainwise IP-100,2013-03-25 17:38:00,
2013-03-25 10:43:00,47.6,43.0,30.26,WSW,247,4.7,11.9,86,0.00,,,0.00,Rainwise IP-100,2013-03-25 17:43:00,
2013-03-25 10:48:00,47.7,43.0,30.26,WSW,247,3.7,11.9,86,0.00,,,0.00,Rainwise IP-100,2013-03-25 17:48:00,
2013-03-25 10:53:00,47.6,43.0,30.26,SW,225,9.1,15.2,86,0.00,,,0.00,Rainwise IP-100,2013-03-25 17:53:00,
2013-03-25 10:58:00,47.5,43.0,30.26,ESE,112,1.6,14.9,86,0.00,,,0.00,Rainwise IP-100,2013-03-25 17:58:00,
2013-03-25 11:03:00,47.7,43.0,30.26,ESE,112,3.7,12.8,86,0.00,,,0.00,Rainwise IP-100,2013-03-25 18:03:00,
2013-03-25 11:08:00,47.9,44.0,30.26,SW,225,6.3,14.7,86,0.00,,,0.00,Rainwise IP-100,2013-03-25 18:08:00,
2013-03-25 11:13:00,48.0,44.0,30.26,SW,225,8.9,18.7,86,0.00,,,0.00,Rainwise IP-100,2013-03-25 18:13:00,
2013-03-25 11:18:00,48.1,44.0,30.26,SSW,202,5.1,9.8,85,0.00,,,0.00,Rainwise IP-100,2013-03-25 18:18:00,
2013-03-25 11:23:00,48.3,44.0,30.26,WSW,247,4.0,13.1,84,0.00,,,0.00,Rainwise IP-100,2013-03-25 18:23:00,
2013-03-25 11:28:00,48.5,44.0,30.27,West,270,1.4,13.5,84,0.00,,,0.00,Rainwise IP-100,2013-03-25 18:28:00,
2013-03-25 11:33:00,48.4,43.0,30.26,South,180,3.0,14.7,83,0.00,,,0.00,Rainwise IP-100,2013-03-25 18:33:00,
2013-03-25 11:38:00,48.5,44.0,30.26,East,90,0.0,15.4,83,0.00,,,0.00,Rainwise IP-100,2013-03-25 18:38:00,
2013-03-25 11:43:00,49.1,44.0,30.26,WNW,292,0.0,9.1,83,0.00,,,0.00,Rainwise IP-100,2013-03-25 18:43:00,
2013-03-25 11:48:00,49.6,45.0,30.27,SW,225,3.7,18.2,82,0.00,,,0.00,Rainwise IP-100,2013-03-25 18:48:00,
2013-03-25 11:53:00,49.5,44.0,30.26,WNW,292,4.7,17.0,81,0.00,,,0.00,Rainwise IP-100,2013-03-25 18:53:00,
2013-03-25 11:58:00,49.4,43.0,30.26,WNW,292,6.3,13.5,81,0.00,,,0.00,Rainwise IP-100,2013-03-25 18:58:00,
2013-03-25 12:03:00,49.5,44.0,30.26,WSW,247,2.1,11.9,81,0.00,,,0.00,Rainwise IP-100,2013-03-25 19:03:00,
2013-03-25 12:08:00,49.5,44.0,30.26,WNW,292,6.5,11.2,81,0.00,,,0.00,Rainwise IP-100,2013-03-25 19:08:00,
2013-03-25 12:13:00,49.8,44.0,30.26,NW,315,6.5,12.6,81,0.00,,,0.00,Rainwise IP-100,2013-03-25 19:13:00,
2013-03-25 12:18:00,50.0,44.0,30.26,WNW,292,5.6,16.3,80,0.00,,,0.00,Rainwise IP-100,2013-03-25 19:18:00,
2013-03-25 12:23:00,50.1,44.0,30.26,SW,225,2.3,11.7,80,0.00,,,0.00,Rainwise IP-100,2013-03-25 19:23:00,
2013-03-25 12:28:00,50.2,43.0,30.26,West,270,1.2,15.9,79,0.00,,,0.00,Rainwise IP-100,2013-03-25 19:28:00,
2013-03-25 12:33:00,50.3,44.0,30.26,West,270,11.2,12.4,79,0.00,,,0.00,Rainwise IP-100,2013-03-25 19:33:00,
2013-03-25 12:38:00,50.4,44.0,30.26,West,270,4.2,12.8,78,0.00,,,0.00,Rainwise IP-100,2013-03-25 19:38:00,
2013-03-25 12:43:00,50.4,44.0,30.26,West,270,7.0,14.9,78,0.00,,,0.00,Rainwise IP-100,2013-03-25 19:43:00,
2013-03-25 12:48:00,50.6,43.0,30.26,WNW,292,4.2,15.9,77,0.00,,,0.00,Rainwise IP-100,2013-03-25 19:48:00,
2013-03-25 12:53:00,50.9,44.0,30.25,SSE,157,3.5,11.7,77,0.00,,,0.00,Rainwise IP-100,2013-03-25 19:53:00,
2013-03-25 12:58:00,50.9,44.0,30.26,SW,225,6.8,14.0,77,0.00,,,0.00,Rainwise IP-100,2013-03-25 19:58:00,
2013-03-25 13:03:00,51.3,44.0,30.25,SE,135,4.7,14.5,76,0.00,,,0.00,Rainwise IP-100,2013-03-25 20:03:00,
2013-03-25 13:08:00,51.5,44.0,30.25,WNW,292,2.3,15.4,75,0.00,,,0.00,Rainwise IP-100,2013-03-25 20:08:00,
2013-03-25 13:13:00,51.6,44.0,30.25,WNW,292,4.9,13.8,75,0.00,,,0.00,Rainwise IP-100,2013-03-25 20:13:00,
2013-03-25 13:18:00,52.0,44.0,30.25,WSW,247,6.1,16.1,75,0.00,,,0.00,Rainwise IP-100,2013-03-25 20:18:00,
2013-03-25 13:23:00,52.5,45.0,30.25,WSW,247,9.6,14.0,74,0.00,,,0.00,Rainwise IP-100,2013-03-25 20:23:00,
2013-03-25 13:28:00,52.4,44.0,30.25,NNW,337,0.0,17.3,74,0.00,,,0.00,Rainwise IP-100,2013-03-25 20:28:00,
2013-03-25 13:33:00,52.3,44.0,30.25,WNW,292,4.0,17.5,74,0.00,,,0.00,Rainwise IP-100,2013-03-25 20:33:00,
2013-03-25 13:38:00,52.5,45.0,30.24,SSW,202,13.8,16.1,74,0.00,,,0.00,Rainwise IP-100,2013-03-25 20:38:00,
2013-03-25 13:43:00,52.6,44.0,30.25,NNE,22,1.6,14.9,72,0.00,,,0.00,Rainwise IP-100,2013-03-25 20:43:00,
2013-03-25 13:49:00,52.4,43.0,30.25,West,270,9.6,18.0,73,0.00,,,0.00,Rainwise IP-100,2013-03-25 20:49:00,
2013-03-25 13:54:00,52.1,43.0,30.24,West,270,2.1,14.9,73,0.00,,,0.00,Rainwise IP-100,2013-03-25 20:54:00,
2013-03-25 13:59:00,52.1,43.0,30.25,SW,225,12.6,16.1,73,0.00,,,0.00,Rainwise IP-100,2013-03-25 20:59:00,
2013-03-25 14:04:00,51.9,43.0,30.25,NW,315,8.9,15.6,73,0.00,,,0.00,Rainwise IP-100,2013-03-25 21:04:00,
2013-03-25 14:09:00,51.8,43.0,30.25,SSW,202,2.3,16.8,73,0.00,,,0.00,Rainwise IP-100,2013-03-25 21:09:00,
2013-03-25 14:14:00,52.1,43.0,30.25,SSW,202,4.2,15.9,73,0.00,,,0.00,Rainwise IP-100,2013-03-25 21:14:00,
2013-03-25 14:19:00,52.0,43.0,30.24,WSW,247,2.8,14.7,73,0.00,,,0.00,Rainwise IP-100,2013-03-25 21:19:00,
2013-03-25 14:24:00,51.8,43.0,30.24,West,270,0.0,12.8,73,0.00,,,0.00,Rainwise IP-100,2013-03-25 21:24:00,
2013-03-25 14:29:00,52.1,43.0,30.24,SSW,202,4.2,14.7,73,0.00,,,0.00,Rainwise IP-100,2013-03-25 21:29:00,
2013-03-25 14:34:00,52.5,44.0,30.24,NW,315,7.2,15.4,72,0.00,,,0.00,Rainwise IP-100,2013-03-25 21:34:00,
2013-03-25 14:39:00,52.3,43.0,30.24,SSE,157,2.1,13.1,72,0.00,,,0.00,Rainwise IP-100,2013-03-25 21:39:00,
2013-03-25 14:44:00,52.2,43.0,30.23,NW,315,0.0,15.6,72,0.00,,,0.00,Rainwise IP-100,2013-03-25 21:44:00,
2013-03-25 14:49:00,52.1,43.0,30.24,WNW,292,3.7,16.8,72,0.00,,,0.00,Rainwise IP-100,2013-03-25 21:49:00,
2013-03-25 14:54:00,51.4,43.0,30.23,WSW,247,4.2,18.0,73,0.00,,,0.00,Rainwise IP-100,2013-03-25 21:54:00,
2013-03-25 14:59:00,51.2,43.0,30.23,WSW,247,1.9,16.1,74,0.00,,,0.00,Rainwise IP-100,2013-03-25 21:59:00,
2013-03-25 15:04:00,51.3,43.0,30.23,West,270,6.5,14.5,73,0.00,,,0.00,Rainwise IP-100,2013-03-25 22:04:00,
2013-03-25 15:09:00,51.0,43.0,30.24,NW,315,6.3,19.6,73,0.00,,,0.00,Rainwise IP-100,2013-03-25 22:09:00,
2013-03-25 15:14:00,50.8,43.0,30.23,WSW,247,4.7,12.6,74,0.00,,,0.00,Rainwise IP-100,2013-03-25 22:14:00,
2013-03-25 15:19:00,51.1,43.0,30.22,WNW,292,3.7,14.0,74,0.00,,,0.00,Rainwise IP-100,2013-03-25 22:19:00,
2013-03-25 15:24:00,51.2,43.0,30.22,WNW,292,6.3,20.5,74,0.00,,,0.00,Rainwise IP-100,2013-03-25 22:24:00,
2013-03-25 15:29:00,51.1,43.0,30.22,West,270,7.0,14.9,74,0.00,,,0.00,Rainwise IP-100,2013-03-25 22:29:00,
2013-03-25 15:34:00,51.0,43.0,30.22,SSW,202,7.2,21.9,74,0.00,,,0.00,Rainwise IP-100,2013-03-25 22:34:00,
2013-03-25 15:39:00,50.9,43.0,30.22,WNW,292,12.8,18.0,74,0.00,,,0.00,Rainwise IP-100,2013-03-25 22:39:00,
2013-03-25 15:44:00,51.0,43.0,30.22,WNW,292,1.6,19.6,74,0.00,,,0.00,Rainwise IP-100,2013-03-25 22:44:00,
2013-03-25 15:49:00,51.1,43.0,30.21,South,180,1.4,22.4,73,0.00,,,0.00,Rainwise IP-100,2013-03-25 22:49:00,
2013-03-25 15:54:00,51.0,43.0,30.21,SSW,202,10.7,20.1,73,0.00,,,0.00,Rainwise IP-100,2013-03-25 22:54:00,
2013-03-25 15:59:00,51.1,43.0,30.21,WSW,247,6.5,21.0,74,0.00,,,0.00,Rainwise IP-100,2013-03-25 22:59:00,
2013-03-25 16:04:00,51.0,43.0,30.22,West,270,8.6,19.1,74,0.00,,,0.00,Rainwise IP-100,2013-03-25 23:04:00,
2013-03-25 16:09:00,50.9,43.0,30.21,WNW,292,11.9,16.6,74,0.00,,,0.00,Rainwise IP-100,2013-03-25 23:09:00,
2013-03-25 16:14:00,51.1,43.0,30.21,SE,135,10.3,18.9,74,0.00,,,0.00,Rainwise IP-100,2013-03-25 23:14:00,
2013-03-25 16:19:00,51.3,43.0,30.21,WNW,292,9.1,15.2,74,0.00,,,0.00,Rainwise IP-100,2013-03-25 23:19:00,
2013-03-25 16:24:00,51.1,44.0,30.21,WSW,247,2.6,16.6,75,0.00,,,0.00,Rainwise IP-100,2013-03-25 23:24:00,
2013-03-25 16:29:00,51.2,43.0,30.21,West,270,8.2,14.5,74,0.00,,,0.00,Rainwise IP-100,2013-03-25 23:29:00,
2013-03-25 16:34:00,50.9,43.0,30.21,WNW,292,6.3,15.4,74,0.00,,,0.00,Rainwise IP-100,2013-03-25 23:34:00,
2013-03-25 16:39:00,50.3,43.0,30.21,SSE,157,0.0,13.3,75,0.00,,,0.00,Rainwise IP-100,2013-03-25 23:39:00,
2013-03-25 16:44:00,50.3,43.0,30.21,WSW,247,6.5,11.7,76,0.00,,,0.00,Rainwise IP-100,2013-03-25 23:44:00,
2013-03-25 16:49:00,50.0,43.0,30.21,WNW,292,1.9,13.3,77,0.00,,,0.00,Rainwise IP-100,2013-03-25 23:49:00,
2013-03-25 16:54:00,49.6,43.0,30.21,NNW,337,2.8,13.5,78,0.00,,,0.00,Rainwise IP-100,2013-03-25 23:54:00,
2013-03-25 16:59:00,49.5,43.0,30.21,SSW,202,0.0,16.8,78,0.00,,,0.00,Rainwise IP-100,2013-03-25 23:59:00,
2013-03-25 17:04:00,49.6,43.0,30.20,WNW,292,4.2,16.8,78,0.00,,,0.00,Rainwise IP-100,2013-03-26 00:04:00,
2013-03-25 17:09:00,49.8,43.0,30.20,SSW,202,1.9,11.0,78,0.00,,,0.00,Rainwise IP-100,2013-03-26 00:09:00,
2013-03-25 17:14:00,49.7,43.0,30.20,WSW,247,1.6,15.4,78,0.00,,,0.00,Rainwise IP-100,2013-03-26 00:14:00,
2013-03-25 17:19:00,49.6,43.0,30.20,South,180,1.4,13.5,78,0.00,,,0.00,Rainwise IP-100,2013-03-26 00:19:00,
2013-03-25 17:24:00,49.5,43.0,30.20,SSW,202,7.9,15.4,78,0.00,,,0.00,Rainwise IP-100,2013-03-26 00:24:00,
2013-03-25 17:29:00,49.4,43.0,30.20,WNW,292,4.2,17.0,79,0.00,,,0.00,Rainwise IP-100,2013-03-26 00:29:00,
2013-03-25 17:34:00,49.5,43.0,30.20,SSW,202,6.5,15.4,79,0.00,,,0.00,Rainwise IP-100,2013-03-26 00:34:00,
2013-03-25 17:39:00,49.7,43.0,30.21,West,270,5.8,14.0,79,0.00,,,0.00,Rainwise IP-100,2013-03-26 00:39:00,
2013-03-25 17:44:00,49.7,43.0,30.20,West,270,4.4,14.7,79,0.00,,,0.00,Rainwise IP-100,2013-03-26 00:44:00,
2013-03-25 17:49:00,49.7,43.0,30.20,West,270,4.4,13.5,79,0.00,,,0.00,Rainwise IP-100,2013-03-26 00:49:00,
2013-03-25 17:54:00,49.5,43.0,30.20,NW,315,2.6,14.2,79,0.00,,,0.00,Rainwise IP-100,2013-03-26 00:54:00,
2013-03-25 17:59:00,49.2,43.0,30.20,WSW,247,4.4,10.3,79,0.00,,,0.00,Rainwise IP-100,2013-03-26 00:59:00,
2013-03-25 18:04:00,49.3,43.0,30.21,SW,225,2.8,13.8,80,0.00,,,0.00,Rainwise IP-100,2013-03-26 01:04:00,
2013-03-25 18:09:00,49.1,43.0,30.20,North,360,3.3,14.5,80,0.00,,,0.00,Rainwise IP-100,2013-03-26 01:09:00,
2013-03-25 18:14:00,49.0,43.0,30.21,WNW,292,2.3,13.3,81,0.00,,,0.00,Rainwise IP-100,2013-03-26 01:14:00,
2013-03-25 18:19:00,48.9,44.0,30.21,SSW,202,5.1,12.4,82,0.00,,,0.00,Rainwise IP-100,2013-03-26 01:19:00,
2013-03-25 18:24:00,48.7,44.0,30.21,WSW,247,6.5,11.7,82,0.00,,,0.00,Rainwise IP-100,2013-03-26 01:24:00,
2013-03-25 18:29:00,48.6,44.0,30.21,WSW,247,12.4,12.4,83,0.00,,,0.00,Rainwise IP-100,2013-03-26 01:29:00,
2013-03-25 18:34:00,48.6,44.0,30.20,SSW,202,4.9,12.4,83,0.00,,,0.00,Rainwise IP-100,2013-03-26 01:34:00,
2013-03-25 18:39:00,48.5,44.0,30.21,WNW,292,7.7,16.1,83,0.00,,,0.00,Rainwise IP-100,2013-03-26 01:39:00,
2013-03-25 18:44:00,48.4,43.0,30.21,North,360,2.1,10.7,83,0.00,,,0.00,Rainwise IP-100,2013-03-26 01:44:00,
2013-03-25 18:49:00,48.4,44.0,30.20,WNW,292,3.3,15.4,84,0.00,,,0.00,Rainwise IP-100,2013-03-26 01:49:00,
2013-03-25 18:54:00,48.4,44.0,30.20,South,180,0.0,10.0,84,0.00,,,0.00,Rainwise IP-100,2013-03-26 01:54:00,
2013-03-25 18:59:00,48.3,44.0,30.20,SW,225,7.2,9.3,84,0.00,,,0.00,Rainwise IP-100,2013-03-26 01:59:00,
2013-03-25 19:04:00,48.3,44.0,30.21,SSW,202,0.0,14.9,85,0.00,,,0.00,Rainwise IP-100,2013-03-26 02:04:00,
2013-03-25 19:09:00,48.2,44.0,30.21,SE,135,1.4,12.8,85,0.00,,,0.00,Rainwise IP-100,2013-03-26 02:09:00,
2013-03-25 19:14:00,48.2,44.0,30.20,SW,225,7.9,12.6,85,0.00,,,0.00,Rainwise IP-100,2013-03-26 02:14:00,
2013-03-25 19:19:00,48.2,44.0,30.21,NW,315,3.3,11.4,85,0.00,,,0.00,Rainwise IP-100,2013-03-26 02:19:00,
2013-03-25 19:24:00,48.3,44.0,30.20,West,270,8.4,10.3,85,0.00,,,0.00,Rainwise IP-100,2013-03-26 02:24:00,
2013-03-25 19:29:00,48.3,44.0,30.20,SSW,202,2.1,8.9,86,0.00,,,0.00,Rainwise IP-100,2013-03-26 02:29:00,
2013-03-25 19:34:00,48.2,44.0,30.20,WNW,292,3.5,13.3,86,0.00,,,0.00,Rainwise IP-100,2013-03-26 02:34:00,
2013-03-25 19:39:00,48.2,44.0,30.20,ENE,67,0.0,14.0,86,0.00,,,0.00,Rainwise IP-100,2013-03-26 02:39:00,
2013-03-25 19:44:00,48.2,44.0,30.20,NNW,337,1.2,15.9,86,0.00,,,0.00,Rainwise IP-100,2013-03-26 02:44:00,
2013-03-25 19:49:00,48.2,44.0,30.20,WNW,292,7.2,14.9,86,0.00,,,0.00,Rainwise IP-100,2013-03-26 02:49:00,
2013-03-25 19:54:00,48.2,44.0,30.20,West,270,2.1,13.1,86,0.00,,,0.00,Rainwise IP-100,2013-03-26 02:54:00,
2013-03-25 19:59:00,48.2,44.0,30.20,SE,135,4.0,13.3,86,0.00,,,0.00,Rainwise IP-100,2013-03-26 02:59:00,
2013-03-25 20:04:00,48.2,44.0,30.19,NW,315,7.2,9.3,86,0.00,,,0.00,Rainwise IP-100,2013-03-26 03:04:00,
2013-03-25 20:09:00,48.2,44.0,30.20,WNW,292,6.3,10.7,86,0.00,,,0.00,Rainwise IP-100,2013-03-26 03:09:00,
2013-03-25 20:14:00,48.1,44.0,30.19,WNW,292,10.3,13.3,86,0.00,,,0.00,Rainwise IP-100,2013-03-26 03:14:00,
2013-03-25 20:19:00,48.1,44.0,30.19,SE,135,1.6,14.2,86,0.00,,,0.00,Rainwise IP-100,2013-03-26 03:19:00,
2013-03-25 20:24:00,48.0,44.0,30.17,ESE,112,3.3,6.5,86,0.00,,,0.00,Rainwise IP-100,2013-03-26 03:24:00,
2013-03-25 20:29:00,48.0,44.0,30.17,ESE,112,5.1,8.9,86,0.00,,,0.00,Rainwise IP-100,2013-03-26 03:29:00,
2013-03-25 20:34:00,47.8,44.0,30.18,SSW,202,4.4,6.8,86,0.00,,,0.00,Rainwise IP-100,2013-03-26 03:34:00,
2013-03-25 20:39:00,47.9,44.0,30.19,WNW,292,3.0,17.0,85,0.00,,,0.00,Rainwise IP-100,2013-03-26 03:39:00,
2013-03-25 20:44:00,48.1,44.0,30.19,East,90,1.2,11.0,85,0.00,,,0.00,Rainwise IP-100,2013-03-26 03:44:00,
2013-03-25 20:49:00,48.2,44.0,30.21,WNW,292,3.0,10.0,85,0.00,,,0.00,Rainwise IP-100,2013-03-26 03:49:00,
2013-03-25 20:54:00,48.1,44.0,30.20,WNW,292,2.8,12.8,86,0.00,,,0.00,Rainwise IP-100,2013-03-26 03:54:00,
2013-03-25 20:59:00,48.0,44.0,30.20,WSW,247,2.6,11.9,86,0.00,,,0.00,Rainwise IP-100,2013-03-26 03:59:00,
2013-03-25 21:00:00,48.0,44.0,30.20,SW,225,7.0,11.9,86,0.00,,,0.00,Rainwise IP-100,2013-03-26 04:00:00,
2013-03-25 21:05:00,48.0,44.0,30.21,WSW,247,4.7,8.2,86,0.00,,,0.00,Rainwise IP-100,2013-03-26 04:05:00,
2013-03-25 21:10:00,47.9,44.0,30.21,WNW,292,3.5,9.6,86,0.00,,,0.00,Rainwise IP-100,2013-03-26 04:10:00,
2013-03-25 21:15:00,47.8,44.0,30.21,SSW,202,1.9,16.6,86,0.00,,,0.00,Rainwise IP-100,2013-03-26 04:15:00,
2013-03-25 21:20:00,47.8,44.0,30.21,WNW,292,3.0,8.4,86,0.00,,,0.00,Rainwise IP-100,2013-03-26 04:20:00,
2013-03-25 21:25:00,47.8,45.0,30.21,West,270,8.4,10.5,87,0.00,,,0.00,Rainwise IP-100,2013-03-26 04:25:00,
2013-03-25 21:26:00,47.8,45.0,30.21,West,270,4.7,10.5,87,0.00,,,0.00,Rainwise IP-100,2013-03-26 04:26:00,
2013-03-25 21:31:00,47.8,45.0,30.22,WNW,292,6.3,14.2,87,0.00,,,0.00,Rainwise IP-100,2013-03-26 04:31:00,
2013-03-25 21:36:00,47.8,45.0,30.21,WSW,247,4.2,15.6,87,0.00,,,0.00,Rainwise IP-100,2013-03-26 04:36:00,
2013-03-25 21:41:00,47.8,45.0,30.22,WSW,247,5.6,14.0,87,0.00,,,0.00,Rainwise IP-100,2013-03-26 04:41:00,
2013-03-25 21:46:00,47.8,45.0,30.22,WSW,247,4.2,10.3,87,0.00,,,0.00,Rainwise IP-100,2013-03-26 04:46:00,
2013-03-25 21:51:00,47.8,45.0,30.22,SW,225,5.8,10.5,87,0.00,,,0.00,Rainwise IP-100,2013-03-26 04:51:00,
2013-03-25 21:56:00,47.7,44.0,30.22,WNW,292,1.6,11.9,88,0.00,,,0.00,Rainwise IP-100,2013-03-26 04:56:00,
2013-03-25 22:01:00,47.7,44.0,30.22,SW,225,4.0,8.9,88,0.00,,,0.00,Rainwise IP-100,2013-03-26 05:01:00,
2013-03-25 22:06:00,47.7,44.0,30.22,West,270,2.3,10.3,88,0.00,,,0.00,Rainwise IP-100,2013-03-26 05:06:00,
2013-03-25 22:11:00,47.7,44.0,30.22,West,270,1.4,8.4,88,0.00,,,0.00,Rainwise IP-100,2013-03-26 05:11:00,
2013-03-25 22:16:00,47.7,44.0,30.22,WSW,247,6.3,12.4,88,0.00,,,0.00,Rainwise IP-100,2013-03-26 05:16:00,
2013-03-25 22:21:00,47.7,44.0,30.22,WSW,247,3.5,16.8,89,0.00,,,0.00,Rainwise IP-100,2013-03-26 05:21:00,
2013-03-25 22:26:00,47.7,44.0,30.23,SW,225,8.9,11.7,89,0.00,,,0.00,Rainwise IP-100,2013-03-26 05:26:00,
2013-03-25 22:31:00,47.7,44.0,30.22,WSW,247,3.0,11.7,89,0.00,,,0.00,Rainwise IP-100,2013-03-26 05:31:00,
2013-03-25 22:36:00,47.7,44.0,30.22,WNW,292,3.0,15.2,89,0.00,,,0.00,Rainwise IP-100,2013-03-26 05:36:00,
2013-03-25 22:41:00,47.8,45.0,30.22,WSW,247,3.3,11.9,89,0.00,,,0.00,Rainwise IP-100,2013-03-26 05:41:00,
2013-03-25 22:46:00,47.8,46.0,30.22,WSW,247,6.1,11.4,90,0.00,,,0.00,Rainwise IP-100,2013-03-26 05:46:00,
2013-03-25 22:51:00,47.8,46.0,30.23,SW,225,2.3,15.2,90,0.00,,,0.00,Rainwise IP-100,2013-03-26 05:51:00,
2013-03-25 22:56:00,47.8,45.0,30.23,WNW,292,11.4,13.5,89,0.00,,,0.00,Rainwise IP-100,2013-03-26 05:56:00,
2013-03-25 23:01:00,47.7,44.0,30.24,WSW,247,6.3,16.1,88,0.00,,,0.00,Rainwise IP-100,2013-03-26 06:01:00,
2013-03-25 23:06:00,47.7,44.0,30.23,WNW,292,7.5,15.2,87,0.00,,,0.00,Rainwise IP-100,2013-03-26 06:06:00,
2013-03-25 23:11:00,47.6,44.0,30.23,WSW,247,1.6,16.3,87,0.00,,,0.00,Rainwise IP-100,2013-03-26 06:11:00,
2013-03-25 23:16:00,47.6,44.0,30.23,West,270,8.6,10.7,87,0.00,,,0.00,Rainwise IP-100,2013-03-26 06:16:00,
2013-03-25 23:21:00,47.6,43.0,30.23,WNW,292,10.7,14.9,86,0.00,,,0.00,Rainwise IP-100,2013-03-26 06:21:00,
2013-03-25 23:26:00,47.4,43.0,30.23,West,270,3.0,15.2,86,0.00,,,0.00,Rainwise IP-100,2013-03-26 06:26:00,
2013-03-25 23:31:00,47.4,43.0,30.23,WSW,247,6.5,9.8,86,0.00,,,0.00,Rainwise IP-100,2013-03-26 06:31:00,
2013-03-25 23:36:00,47.4,43.0,30.23,West,270,6.8,11.2,86,0.00,,,0.00,Rainwise IP-100,2013-03-26 06:36:00,
2013-03-25 23:41:00,47.4,43.0,30.23,WNW,292,3.5,13.1,85,0.00,,,0.00,Rainwise IP-100,2013-03-26 06:41:00,
2013-03-25 23:46:00,47.4,43.0,30.23,North,360,2.1,12.4,85,0.00,,,0.00,Rainwise IP-100,2013-03-26 06:46:00,
2013-03-25 23:52:00,47.3,43.0,30.22,WSW,247,4.7,11.7,86,0.00,,,0.00,Rainwise IP-100,2013-03-26 06:52:00,
2013-03-25 23:57:00,47.2,43.0,30.22,WSW,247,2.1,12.1,86,0.00,,,0.00,Rainwise IP-100,2013-03-26 06:57:00,